Time,TemperatureF,DewpointF,PressureIn,WindDirection,WindDirectionDegrees,WindSpeedMPH,WindSpeedGustMPH,Humidity,HourlyPrecipIn,Conditions,Clouds,dailyrainin,SoftwareType,DateUTC
2013-11-28 00:01:00,50.1,25.5,29.97,SSE,161,4.0,4.0,38,0.00,,,0.00,LWC V2.00 B727,2013-11-28 07:01:00,
2013-11-28 00:06:00,49.8,25.9,29.98,SSE,161,4.0,4.0,39,0.00,,,0.00,LWC V2.00 B727,2013-11-28 07:06:00,
2013-11-28 00:11:00,50.1,24.9,29.98,SSE,161,2.0,3.0,37,0.00,,,0.00,LWC V2.00 B727,2013-11-28 07:11:00,
2013-11-28 00:16:00,50.5,24.6,29.98,SSE,161,0.0,0.0,36,0.00,,,0.00,LWC V2.00 B727,2013-11-28 07:16:00,
2013-11-28 00:21:00,50.5,25.2,29.98,SSE,161,0.0,0.0,37,0.00,,,0.00,LWC V2.00 B727,2013-11-28 07:21:00,
2013-11-28 00:26:00,50.4,25.8,29.98,SSE,161,0.0,0.0,38,0.00,,,0.00,LWC V2.00 B727,2013-11-28 07:26:00,
2013-11-28 00:31:00,49.9,25.9,29.98,SSE,157,0.0,0.0,39,0.00,,,0.00,LWC V2.00 B727,2013-11-28 07:31:00,
2013-11-28 00:36:00,49.1,26.4,29.98,SE,143,0.0,0.0,41,0.00,,,0.00,LWC V2.00 B727,2013-11-28 07:36:00,
2013-11-28 00:41:00,48.5,25.9,29.97,SE,143,0.0,0.0,41,0.00,,,0.00,LWC V2.00 B727,2013-11-28 07:41:00,
2013-11-28 00:46:00,48.5,25.3,29.98,SE,143,0.0,0.0,40,0.00,,,0.00,LWC V2.00 B727,2013-11-28 07:46:00,
2013-11-28 00:51:00,48.6,25.4,29.97,SE,143,0.0,0.0,40,0.00,,,0.00,LWC V2.00 B727,2013-11-28 07:51:00,
2013-11-28 00:56:00,48.9,24.4,29.97,SE,143,0.0,0.0,38,0.00,,,0.00,LWC V2.00 B727,2013-11-28 07:56:00,
2013-11-28 01:01:00,49.4,24.2,29.96,SE,143,0.0,0.0,37,0.00,,,0.00,LWC V2.00 B727,2013-11-28 08:01:00,
2013-11-28 01:06:00,49.6,23.8,29.96,SE,143,0.0,0.0,36,0.00,,,0.00,LWC V2.00 B727,2013-11-28 08:06:00,
2013-11-28 01:11:00,49.8,23.9,29.96,SE,143,0.0,0.0,36,0.00,,,0.00,LWC V2.00 B727,2013-11-28 08:11:00,
2013-11-28 01:16:00,50.2,24.3,29.95,SE,143,0.0,0.0,36,0.00,,,0.00,LWC V2.00 B727,2013-11-28 08:16:00,
2013-11-28 01:21:00,50.1,25.5,29.96,SE,126,0.0,2.0,38,0.00,,,0.00,LWC V2.00 B727,2013-11-28 08:21:00,
2013-11-28 01:26:00,49.4,25.5,29.96,ESE,123,0.0,0.0,39,0.00,,,0.00,LWC V2.00 B727,2013-11-28 08:26:00,
2013-11-28 01:31:00,48.8,25.6,29.96,ESE,123,0.0,0.0,40,0.00,,,0.00,LWC V2.00 B727,2013-11-28 08:31:00,
2013-11-28 01:36:00,48.5,25.3,29.96,ESE,123,0.0,0.0,40,0.00,,,0.00,LWC V2.00 B727,2013-11-28 08:36:00,
2013-11-28 01:41:00,48.3,25.1,29.96,ESE,123,0.0,0.0,40,0.00,,,0.00,LWC V2.00 B727,2013-11-28 08:41:00,
2013-11-28 01:46:00,48.5,24.7,29.97,ESE,123,0.0,0.0,39,0.00,,,0.00,LWC V2.00 B727,2013-11-28 08:46:00,
2013-11-28 01:51:00,48.5,24.1,29.97,ESE,123,0.0,0.0,38,0.00,,,0.00,LWC V2.00 B727,2013-11-28 08:51:00,
2013-11-28 01:56:00,48.2,25.6,29.97,SSE,167,0.0,0.0,41,0.00,,,0.00,LWC V2.00 B727,2013-11-28 08:56:00,
2013-11-28 02:01:00,47.7,26.3,29.97,SSW,209,0.0,0.0,43,0.00,,,0.00,LWC V2.00 B727,2013-11-28 09:01:00,
2013-11-28 02:06:00,47.0,27.3,29.96,SSW,205,0.0,0.0,46,0.00,,,0.00,LWC V2.00 B727,2013-11-28 09:06:00,
2013-11-28 02:11:00,46.4,27.3,29.96,SSW,207,0.0,0.0,47,0.00,,,0.00,LWC V2.00 B727,2013-11-28 09:11:00,
2013-11-28 02:16:00,46.4,26.2,29.96,SSW,207,0.0,0.0,45,0.00,,,0.00,LWC V2.00 B727,2013-11-28 09:16:00,
2013-11-28 02:21:00,46.8,25.5,29.96,SSW,207,0.0,0.0,43,0.00,,,0.00,LWC V2.00 B727,2013-11-28 09:21:00,
2013-11-28 02:26:00,47.4,24.9,29.95,SSW,209,0.0,0.0,41,0.00,,,0.00,LWC V2.00 B727,2013-11-28 09:26:00,
2013-11-28 02:31:00,47.6,25.1,29.96,SSW,209,0.0,0.0,41,0.00,,,0.00,LWC V2.00 B727,2013-11-28 09:31:00,
2013-11-28 02:36:00,47.7,25.7,29.96,SSW,209,0.0,0.0,42,0.00,,,0.00,LWC V2.00 B727,2013-11-28 09:36:00,
2013-11-28 02:41:00,47.6,26.2,29.95,SSW,209,0.0,0.0,43,0.00,,,0.00,LWC V2.00 B727,2013-11-28 09:41:00,
2013-11-28 02:46:00,47.4,26.0,29.95,SSW,209,0.0,0.0,43,0.00,,,0.00,LWC V2.00 B727,2013-11-28 09:46:00,
2013-11-28 02:51:00,47.4,25.5,29.95,SSW,209,0.0,0.0,42,0.00,,,0.00,LWC V2.00 B727,2013-11-28 09:51:00,
2013-11-28 02:56:00,47.6,26.2,29.95,SSW,209,0.0,0.0,43,0.00,,,0.00,LWC V2.00 B727,2013-11-28 09:56:00,
2013-11-28 03:01:00,47.3,26.5,29.95,SSW,209,0.0,0.0,44,0.00,,,0.00,LWC V2.00 B727,2013-11-28 10:01:00,
2013-11-28 03:06:00,47.1,26.3,29.95,SSW,209,0.0,0.0,44,0.00,,,0.00,LWC V2.00 B727,2013-11-28 10:06:00,
2013-11-28 03:11:00,46.8,26.0,29.95,SSW,209,0.0,0.0,44,0.00,,,0.00,LWC V2.00 B727,2013-11-28 10:11:00,
2013-11-28 03:16:00,46.7,26.0,29.96,SSW,209,0.0,0.0,44,0.00,,,0.00,LWC V2.00 B727,2013-11-28 10:16:00,
2013-11-28 03:21:00,46.5,26.8,29.96,SSW,209,0.0,0.0,46,0.00,,,0.00,LWC V2.00 B727,2013-11-28 10:21:00,
2013-11-28 03:26:00,46.1,27.5,29.96,SSW,203,0.0,0.0,48,0.00,,,0.00,LWC V2.00 B727,2013-11-28 10:26:00,
2013-11-28 03:31:00,45.2,28.2,29.96,SSW,193,4.0,4.0,51,0.00,,,0.00,LWC V2.00 B727,2013-11-28 10:31:00,
2013-11-28 03:36:00,44.3,28.3,29.96,SSW,194,3.0,4.0,53,0.00,,,0.00,LWC V2.00 B727,2013-11-28 10:36:00,
2013-11-28 03:41:00,44.1,28.5,29.96,SSW,194,3.0,4.0,54,0.00,,,0.00,LWC V2.00 B727,2013-11-28 10:41:00,
2013-11-28 03:46:00,44.1,28.1,29.96,SSW,195,3.0,4.0,53,0.00,,,0.00,LWC V2.00 B727,2013-11-28 10:46:00,
2013-11-28 03:51:00,44.2,27.7,29.96,SSW,195,3.0,4.0,52,0.00,,,0.00,LWC V2.00 B727,2013-11-28 10:51:00,
2013-11-28 03:56:00,44.3,27.8,29.96,SSW,195,0.0,3.0,52,0.00,,,0.00,LWC V2.00 B727,2013-11-28 10:56:00,
2013-11-28 04:01:00,44.3,27.8,29.96,SSW,195,0.0,0.0,52,0.00,,,0.00,LWC V2.00 B727,2013-11-28 11:01:00,
2013-11-28 04:06:00,44.2,28.2,29.97,SSW,195,0.0,0.0,53,0.00,,,0.00,LWC V2.00 B727,2013-11-28 11:06:00,
2013-11-28 04:11:00,44.2,28.2,29.97,SSW,195,0.0,0.0,53,0.00,,,0.00,LWC V2.00 B727,2013-11-28 11:11:00,
2013-11-28 04:16:00,44.3,27.3,29.96,SSW,195,0.0,0.0,51,0.00,,,0.00,LWC V2.00 B727,2013-11-28 11:16:00,
2013-11-28 04:21:00,44.6,27.1,29.96,SSW,194,3.0,3.0,50,0.00,,,0.00,LWC V2.00 B727,2013-11-28 11:21:00,
2013-11-28 04:26:00,44.8,26.8,29.97,SSW,194,0.0,0.0,49,0.00,,,0.00,LWC V2.00 B727,2013-11-28 11:26:00,
2013-11-28 04:31:00,44.9,27.9,29.97,SSW,194,0.0,0.0,51,0.00,,,0.00,LWC V2.00 B727,2013-11-28 11:31:00,
2013-11-28 04:36:00,44.5,27.5,29.96,SSW,193,0.0,0.0,51,0.00,,,0.00,LWC V2.00 B727,2013-11-28 11:36:00,
2013-11-28 04:41:00,44.2,27.2,29.96,South,174,0.0,0.0,51,0.00,,,0.00,LWC V2.00 B727,2013-11-28 11:41:00,
2013-11-28 04:46:00,44.1,27.1,29.96,South,173,0.0,0.0,51,0.00,,,0.00,LWC V2.00 B727,2013-11-28 11:46:00,
2013-11-28 04:51:00,43.9,27.0,29.96,SE,138,0.0,0.0,51,0.00,,,0.00,LWC V2.00 B727,2013-11-28 11:51:00,
2013-11-28 04:56:00,43.8,26.9,29.96,SE,129,0.0,0.0,51,0.00,,,0.00,LWC V2.00 B727,2013-11-28 11:56:00,
2013-11-28 05:01:00,43.8,26.4,29.97,SE,128,0.0,0.0,50,0.00,,,0.00,LWC V2.00 B727,2013-11-28 12:01:00,
2013-11-28 05:06:00,44.2,25.8,29.96,SE,128,0.0,0.0,48,0.00,,,0.00,LWC V2.00 B727,2013-11-28 12:06:00,
2013-11-28 05:11:00,44.6,25.6,29.97,SE,128,0.0,0.0,47,0.00,,,0.00,LWC V2.00 B727,2013-11-28 12:11:00,
2013-11-28 05:16:00,45.1,25.0,29.97,SE,128,0.0,0.0,45,0.00,,,0.00,LWC V2.00 B727,2013-11-28 12:16:00,
2013-11-28 05:21:00,45.5,24.9,29.97,SE,128,0.0,0.0,44,0.00,,,0.00,LWC V2.00 B727,2013-11-28 12:21:00,
2013-11-28 05:26:00,45.7,26.1,29.98,SW,216,0.0,0.0,46,0.00,,,0.00,LWC V2.00 B727,2013-11-28 12:26:00,
2013-11-28 05:31:00,45.2,26.7,29.98,SW,216,0.0,0.0,48,0.00,,,0.00,LWC V2.00 B727,2013-11-28 12:31:00,
2013-11-28 05:36:00,45.1,25.6,29.98,SW,216,0.0,0.0,46,0.00,,,0.00,LWC V2.00 B727,2013-11-28 12:36:00,
2013-11-28 05:41:00,45.1,25.6,29.98,SW,216,0.0,0.0,46,0.00,,,0.00,LWC V2.00 B727,2013-11-28 12:41:00,
2013-11-28 05:46:00,45.1,26.6,29.97,SW,216,0.0,0.0,48,0.00,,,0.00,LWC V2.00 B727,2013-11-28 12:46:00,
2013-11-28 05:51:00,44.9,26.9,29.97,SW,216,0.0,0.0,49,0.00,,,0.00,LWC V2.00 B727,2013-11-28 12:51:00,
2013-11-28 05:56:00,45.2,26.2,29.97,SW,216,0.0,0.0,47,0.00,,,0.00,LWC V2.00 B727,2013-11-28 12:56:00,
2013-11-28 06:01:00,45.5,26.5,29.97,SW,216,0.0,0.0,47,0.00,,,0.00,LWC V2.00 B727,2013-11-28 13:01:00,
2013-11-28 06:06:00,46.0,24.8,29.97,SW,216,0.0,0.0,43,0.00,,,0.00,LWC V2.00 B727,2013-11-28 13:06:00,
2013-11-28 06:11:00,46.2,25.5,29.97,SW,216,0.0,0.0,44,0.00,,,0.00,LWC V2.00 B727,2013-11-28 13:11:00,
2013-11-28 06:16:00,46.2,26.0,29.98,SW,216,0.0,0.0,45,0.00,,,0.00,LWC V2.00 B727,2013-11-28 13:16:00,
2013-11-28 06:21:00,46.1,25.4,29.98,SW,216,0.0,0.0,44,0.00,,,0.00,LWC V2.00 B727,2013-11-28 13:21:00,
2013-11-28 06:26:00,46.0,25.3,29.98,SW,216,0.0,0.0,44,0.00,,,0.00,LWC V2.00 B727,2013-11-28 13:26:00,
2013-11-28 06:31:00,45.8,25.7,29.97,SW,216,0.0,0.0,45,0.00,,,0.00,LWC V2.00 B727,2013-11-28 13:31:00,
2013-11-28 06:36:00,45.7,26.1,29.97,SW,216,0.0,0.0,46,0.00,,,0.00,LWC V2.00 B727,2013-11-28 13:36:00,
2013-11-28 06:41:00,45.5,25.9,29.98,SW,216,0.0,0.0,46,0.00,,,0.00,LWC V2.00 B727,2013-11-28 13:41:00,
2013-11-28 06:46:00,45.5,25.4,29.98,SW,216,0.0,0.0,45,0.00,,,0.00,LWC V2.00 B727,2013-11-28 13:46:00,
2013-11-28 06:51:00,45.5,25.4,29.98,SW,216,0.0,0.0,45,0.00,,,0.00,LWC V2.00 B727,2013-11-28 13:51:00,
2013-11-28 06:56:00,45.7,25.6,29.98,SW,216,0.0,0.0,45,0.00,,,0.00,LWC V2.00 B727,2013-11-28 13:56:00,
2013-11-28 07:01:00,45.7,25.6,29.98,SW,216,0.0,0.0,45,0.00,,,0.00,LWC V2.00 B727,2013-11-28 14:01:00,
2013-11-28 07:06:00,45.5,26.5,29.99,SW,216,0.0,0.0,47,0.00,,,0.00,LWC V2.00 B727,2013-11-28 14:06:00,
2013-11-28 07:11:00,45.4,26.4,29.99,SW,216,0.0,0.0,47,0.00,,,0.00,LWC V2.00 B727,2013-11-28 14:11:00,
2013-11-28 07:16:00,45.4,25.8,29.99,SW,216,3.0,3.0,46,0.00,,,0.00,LWC V2.00 B727,2013-11-28 14:16:00,
2013-11-28 07:21:00,44.9,26.4,30.00,SW,216,0.0,0.0,48,0.00,,,0.00,LWC V2.00 B727,2013-11-28 14:21:00,
2013-11-28 07:26:00,44.6,27.1,30.00,SSW,206,4.0,4.0,50,0.00,,,0.00,LWC V2.00 B727,2013-11-28 14:26:00,
2013-11-28 07:31:00,44.1,26.2,29.99,SSW,206,0.0,0.0,49,0.00,,,0.00,LWC V2.00 B727,2013-11-28 14:31:00,
2013-11-28 07:36:00,44.5,26.0,30.00,SSW,206,0.0,0.0,48,0.00,,,0.00,LWC V2.00 B727,2013-11-28 14:36:00,
2013-11-28 07:41:00,44.1,28.5,29.99,North,359,0.0,0.0,54,0.00,,,0.00,LWC V2.00 B727,2013-11-28 14:41:00,
2013-11-28 07:46:00,44.5,28.0,29.99,North,359,0.0,0.0,52,0.00,,,0.00,LWC V2.00 B727,2013-11-28 14:46:00,
2013-11-28 07:51:00,44.7,27.2,30.00,North,359,0.0,0.0,50,0.00,,,0.00,LWC V2.00 B727,2013-11-28 14:51:00,
2013-11-28 07:56:00,45.0,27.5,29.99,North,359,0.0,0.0,50,0.00,,,0.00,LWC V2.00 B727,2013-11-28 14:56:00,
2013-11-28 08:01:00,45.3,27.8,30.00,North,359,0.0,0.0,50,0.00,,,0.00,LWC V2.00 B727,2013-11-28 15:01:00,
2013-11-28 08:06:00,45.3,28.7,30.00,North,359,0.0,0.0,52,0.00,,,0.00,LWC V2.00 B727,2013-11-28 15:06:00,
2013-11-28 08:11:00,46.0,29.8,30.01,North,359,0.0,0.0,53,0.00,,,0.00,LWC V2.00 B727,2013-11-28 15:11:00,
2013-11-28 08:16:00,45.8,30.1,30.01,North,359,0.0,1.0,54,0.00,,,0.00,LWC V2.00 B727,2013-11-28 15:16:00,
2013-11-28 08:21:00,46.0,31.2,30.01,North,2,3.0,4.0,56,0.00,,,0.00,LWC V2.00 B727,2013-11-28 15:21:00,
2013-11-28 08:26:00,46.0,31.6,30.01,NE,39,5.0,5.0,57,0.00,,,0.00,LWC V2.00 B727,2013-11-28 15:26:00,
2013-11-28 08:31:00,45.9,31.1,30.02,NE,47,3.0,5.0,56,0.00,,,0.00,LWC V2.00 B727,2013-11-28 15:31:00,
2013-11-28 08:36:00,46.3,31.5,30.02,NE,49,2.0,4.0,56,0.00,,,0.00,LWC V2.00 B727,2013-11-28 15:36:00,
2013-11-28 08:41:00,47.5,31.2,30.02,NE,49,2.0,4.0,53,0.00,,,0.00,LWC V2.00 B727,2013-11-28 15:41:00,
2013-11-28 08:46:00,48.5,32.2,30.02,NE,49,0.0,1.0,53,0.00,,,0.00,LWC V2.00 B727,2013-11-28 15:46:00,
2013-11-28 08:51:00,49.1,32.2,30.02,NE,49,0.0,1.0,52,0.00,,,0.00,LWC V2.00 B727,2013-11-28 15:51:00,
2013-11-28 08:56:00,50.4,32.0,30.03,NE,49,0.0,0.0,49,0.00,,,0.00,LWC V2.00 B727,2013-11-28 15:56:00,
2013-11-28 09:01:00,50.3,32.9,30.03,NE,49,0.0,0.0,51,0.00,,,0.00,LWC V2.00 B727,2013-11-28 16:01:00,
2013-11-28 09:06:00,51.4,31.3,30.03,NE,49,0.0,1.0,46,0.00,,,0.00,LWC V2.00 B727,2013-11-28 16:06:00,
2013-11-28 09:11:00,52.3,30.5,30.02,NE,49,0.0,0.0,43,0.00,,,0.00,LWC V2.00 B727,2013-11-28 16:11:00,
2013-11-28 09:16:00,52.9,30.4,30.03,NE,49,0.0,0.0,42,0.00,,,0.00,LWC V2.00 B727,2013-11-28 16:16:00,
2013-11-28 09:21:00,53.5,32.1,30.03,NE,49,0.0,1.0,44,0.00,,,0.00,LWC V2.00 B727,2013-11-28 16:21:00,
2013-11-28 09:26:00,53.9,30.7,30.02,NE,49,0.0,0.0,41,0.00,,,0.00,LWC V2.00 B727,2013-11-28 16:26:00,
2013-11-28 09:31:00,54.4,31.2,30.02,NE,49,0.0,1.0,41,0.00,,,0.00,LWC V2.00 B727,2013-11-28 16:31:00,
2013-11-28 09:36:00,54.5,33.0,30.02,NE,49,0.0,1.0,44,0.00,,,0.00,LWC V2.00 B727,2013-11-28 16:36:00,
2013-11-28 09:41:00,54.4,32.4,30.02,NE,49,0.0,1.0,43,0.00,,,0.00,LWC V2.00 B727,2013-11-28 16:41:00,
2013-11-28 09:46:00,54.7,32.6,30.03,NE,49,0.0,0.0,43,0.00,,,0.00,LWC V2.00 B727,2013-11-28 16:46:00,
2013-11-28 09:51:00,55.0,32.3,30.03,NE,48,0.0,1.0,42,0.00,,,0.00,LWC V2.00 B727,2013-11-28 16:51:00,
2013-11-28 09:56:00,55.5,32.2,30.02,NE,45,0.0,0.0,41,0.00,,,0.00,LWC V2.00 B727,2013-11-28 16:56:00,
2013-11-28 10:01:00,56.4,32.4,30.03,NE,45,0.0,0.0,40,0.00,,,0.00,LWC V2.00 B727,2013-11-28 17:01:00,
2013-11-28 10:06:00,57.0,31.0,30.03,NE,45,0.0,0.0,37,0.00,,,0.00,LWC V2.00 B727,2013-11-28 17:06:00,
2013-11-28 10:11:00,57.6,30.2,30.03,NE,45,0.0,0.0,35,0.00,,,0.00,LWC V2.00 B727,2013-11-28 17:11:00,
2013-11-28 10:16:00,58.0,30.5,30.03,NE,46,0.0,1.0,35,0.00,,,0.00,LWC V2.00 B727,2013-11-28 17:16:00,
2013-11-28 10:21:00,58.3,30.1,30.03,NE,46,0.0,0.0,34,0.00,,,0.00,LWC V2.00 B727,2013-11-28 17:21:00,
2013-11-28 10:26:00,59.0,29.9,30.03,NE,46,0.0,1.0,33,0.00,,,0.00,LWC V2.00 B727,2013-11-28 17:26:00,
2013-11-28 10:31:00,59.2,30.8,30.03,NE,48,0.0,1.0,34,0.00,,,0.00,LWC V2.00 B727,2013-11-28 17:31:00,
2013-11-28 10:36:00,59.3,30.2,30.03,ENE,68,0.0,1.0,33,0.00,,,0.00,LWC V2.00 B727,2013-11-28 17:36:00,
2013-11-28 10:41:00,59.5,30.4,30.03,ENE,68,0.0,1.0,33,0.00,,,0.00,LWC V2.00 B727,2013-11-28 17:41:00,
2013-11-28 10:46:00,59.9,30.7,30.03,ENE,68,0.0,1.0,33,0.00,,,0.00,LWC V2.00 B727,2013-11-28 17:46:00,
2013-11-28 10:51:00,60.1,30.9,30.03,ENE,68,0.0,1.0,33,0.00,,,0.00,LWC V2.00 B727,2013-11-28 17:51:00,
2013-11-28 10:56:00,60.8,31.5,30.02,ENE,68,0.0,0.0,33,0.00,,,0.00,LWC V2.00 B727,2013-11-28 17:56:00,
2013-11-28 11:01:00,61.3,30.4,30.02,ENE,68,0.0,0.0,31,0.00,,,0.00,LWC V2.00 B727,2013-11-28 18:01:00,
2013-11-28 11:06:00,61.7,32.3,30.02,ENE,68,0.0,1.0,33,0.00,,,0.00,LWC V2.00 B727,2013-11-28 18:06:00,
2013-11-28 11:11:00,61.8,32.4,30.02,ENE,68,0.0,0.0,33,0.00,,,0.00,LWC V2.00 B727,2013-11-28 18:11:00,
2013-11-28 11:16:00,62.7,30.8,30.01,ENE,68,0.0,0.0,30,0.00,,,0.00,LWC V2.00 B727,2013-11-28 18:16:00,
2013-11-28 11:21:00,62.6,29.0,30.01,ENE,73,0.0,1.0,28,0.00,,,0.00,LWC V2.00 B727,2013-11-28 18:21:00,
2013-11-28 11:26:00,62.9,31.0,30.02,East,99,0.0,1.0,30,0.00,,,0.00,LWC V2.00 B727,2013-11-28 18:26:00,
2013-11-28 11:31:00,63.2,31.3,30.01,ESE,112,0.0,1.0,30,0.00,,,0.00,LWC V2.00 B727,2013-11-28 18:31:00,
2013-11-28 11:36:00,63.7,31.7,30.01,ESE,114,0.0,1.0,30,0.00,,,0.00,LWC V2.00 B727,2013-11-28 18:36:00,
2013-11-28 11:41:00,64.1,32.0,30.01,ESE,114,1.0,1.0,30,0.00,,,0.00,LWC V2.00 B727,2013-11-28 18:41:00,
2013-11-28 11:46:00,64.4,30.6,30.01,ESE,118,0.0,1.0,28,0.00,,,0.00,LWC V2.00 B727,2013-11-28 18:46:00,
2013-11-28 11:51:00,64.8,30.0,30.01,ESE,118,0.0,1.0,27,0.00,,,0.00,LWC V2.00 B727,2013-11-28 18:51:00,
2013-11-28 11:56:00,64.8,30.0,30.01,SSW,210,1.0,3.0,27,0.00,,,0.00,LWC V2.00 B727,2013-11-28 18:56:00,
2013-11-28 12:01:00,65.1,30.3,30.00,SW,222,3.0,5.0,27,0.00,,,0.00,LWC V2.00 B727,2013-11-28 19:01:00,
2013-11-28 12:06:00,64.7,29.9,30.00,SW,222,0.0,4.0,27,0.00,,,0.00,LWC V2.00 B727,2013-11-28 19:06:00,
2013-11-28 12:11:00,65.6,31.6,30.00,South,174,0.0,1.0,28,0.00,,,0.00,LWC V2.00 B727,2013-11-28 19:11:00,
2013-11-28 12:16:00,65.4,31.4,30.00,South,174,0.0,1.0,28,0.00,,,0.00,LWC V2.00 B727,2013-11-28 19:16:00,
2013-11-28 12:21:00,65.6,30.7,29.99,South,175,0.0,0.0,27,0.00,,,0.00,LWC V2.00 B727,2013-11-28 19:21:00,
2013-11-28 12:26:00,65.8,30.9,29.99,SSE,162,0.0,1.0,27,0.00,,,0.00,LWC V2.00 B727,2013-11-28 19:26:00,
2013-11-28 12:31:00,66.2,32.1,29.99,SSE,168,0.0,1.0,28,0.00,,,0.00,LWC V2.00 B727,2013-11-28 19:31:00,
2013-11-28 12:36:00,66.1,32.0,29.99,SSE,168,0.0,0.0,28,0.00,,,0.00,LWC V2.00 B727,2013-11-28 19:36:00,
2013-11-28 12:41:00,66.6,30.6,29.98,SSE,167,0.0,1.0,26,0.00,,,0.00,LWC V2.00 B727,2013-11-28 19:41:00,
2013-11-28 12:46:00,65.7,31.7,29.98,SSE,167,0.0,0.0,28,0.00,,,0.00,LWC V2.00 B727,2013-11-28 19:46:00,
2013-11-28 12:51:00,65.9,32.7,29.98,South,169,0.0,0.0,29,0.00,,,0.00,LWC V2.00 B727,2013-11-28 19:51:00,
2013-11-28 12:56:00,66.5,32.4,29.98,SSW,207,0.0,1.0,28,0.00,,,0.00,LWC V2.00 B727,2013-11-28 19:56:00,
2013-11-28 13:01:00,66.9,30.9,29.98,SW,218,1.0,1.0,26,0.00,,,0.00,LWC V2.00 B727,2013-11-28 20:01:00,
2013-11-28 13:06:00,66.9,32.7,29.97,SW,223,0.0,1.0,28,0.00,,,0.00,LWC V2.00 B727,2013-11-28 20:06:00,
2013-11-28 13:11:00,67.5,33.2,29.97,SW,224,0.0,0.0,28,0.00,,,0.00,LWC V2.00 B727,2013-11-28 20:11:00,
2013-11-28 13:16:00,68.3,33.0,29.97,SW,217,1.0,1.0,27,0.00,,,0.00,LWC V2.00 B727,2013-11-28 20:16:00,
2013-11-28 13:21:00,68.8,35.2,29.97,SSE,164,0.0,1.0,29,0.00,,,0.00,LWC V2.00 B727,2013-11-28 20:21:00,
2013-11-28 13:26:00,70.1,35.5,29.96,SSE,165,6.0,6.0,28,0.00,,,0.00,LWC V2.00 B727,2013-11-28 20:26:00,
2013-11-28 13:31:00,70.0,34.5,29.97,SSE,147,5.0,7.0,27,0.00,,,0.00,LWC V2.00 B727,2013-11-28 20:31:00,
2013-11-28 13:36:00,69.9,34.4,29.96,South,170,4.0,9.0,27,0.00,,,0.00,LWC V2.00 B727,2013-11-28 20:36:00,
2013-11-28 13:41:00,69.9,34.4,29.96,SSE,157,2.0,6.0,27,0.00,,,0.00,LWC V2.00 B727,2013-11-28 20:41:00,
2013-11-28 13:46:00,69.8,34.3,29.96,South,174,4.0,7.0,27,0.00,,,0.00,LWC V2.00 B727,2013-11-28 20:46:00,
2013-11-28 13:51:00,69.8,34.3,29.96,SE,130,3.0,6.0,27,0.00,,,0.00,LWC V2.00 B727,2013-11-28 20:51:00,
2013-11-28 13:56:00,69.7,34.2,29.95,SSE,158,0.0,1.0,27,0.00,,,0.00,LWC V2.00 B727,2013-11-28 20:56:00,
2013-11-28 14:01:00,70.2,34.6,29.95,SE,136,5.0,9.0,27,0.00,,,0.00,LWC V2.00 B727,2013-11-28 21:01:00,
2013-11-28 14:06:00,70.2,34.6,29.95,SSE,149,3.0,4.0,27,0.00,,,0.00,LWC V2.00 B727,2013-11-28 21:06:00,
2013-11-28 14:11:00,70.4,34.8,29.95,SSE,163,1.0,9.0,27,0.00,,,0.00,LWC V2.00 B727,2013-11-28 21:11:00,
2013-11-28 14:16:00,70.4,34.8,29.95,SE,128,3.0,7.0,27,0.00,,,0.00,LWC V2.00 B727,2013-11-28 21:16:00,
2013-11-28 14:21:00,70.2,34.6,29.95,SSE,147,7.0,9.0,27,0.00,,,0.00,LWC V2.00 B727,2013-11-28 21:21:00,
2013-11-28 14:26:00,70.3,34.7,29.95,SE,137,6.0,6.0,27,0.00,,,0.00,LWC V2.00 B727,2013-11-28 21:26:00,
2013-11-28 14:31:00,70.4,34.8,29.95,South,176,2.0,5.0,27,0.00,,,0.00,LWC V2.00 B727,2013-11-28 21:31:00,
2013-11-28 14:36:00,70.9,34.3,29.95,South,177,3.0,5.0,26,0.00,,,0.00,LWC V2.00 B727,2013-11-28 21:36:00,
2013-11-28 14:41:00,70.8,34.2,29.95,South,175,5.0,5.0,26,0.00,,,0.00,LWC V2.00 B727,2013-11-28 21:41:00,
2013-11-28 14:46:00,70.5,33.0,29.95,SSE,151,4.0,7.0,25,0.00,,,0.00,LWC V2.00 B727,2013-11-28 21:46:00,
2013-11-28 14:51:00,70.3,32.8,29.95,South,182,2.0,6.0,25,0.00,,,0.00,LWC V2.00 B727,2013-11-28 21:51:00,
2013-11-28 14:56:00,70.3,33.8,29.95,SSE,157,6.0,7.0,26,0.00,,,0.00,LWC V2.00 B727,2013-11-28 21:56:00,
2013-11-28 15:01:00,70.1,33.6,29.94,South,181,2.0,3.0,26,0.00,,,0.00,LWC V2.00 B727,2013-11-28 22:01:00,
2013-11-28 15:06:00,70.2,33.7,29.95,South,180,4.0,6.0,26,0.00,,,0.00,LWC V2.00 B727,2013-11-28 22:06:00,
2013-11-28 15:11:00,70.2,34.6,29.94,SSW,201,4.0,5.0,27,0.00,,,0.00,LWC V2.00 B727,2013-11-28 22:11:00,
2013-11-28 15:16:00,70.1,34.6,29.95,South,191,4.0,6.0,27,0.00,,,0.00,LWC V2.00 B727,2013-11-28 22:16:00,
2013-11-28 15:22:00,69.9,33.4,29.95,SW,218,4.0,5.0,26,0.00,,,0.00,LWC V2.00 B727,2013-11-28 22:22:00,
2013-11-28 15:27:00,69.5,33.1,29.95,SW,219,7.0,7.0,26,0.00,,,0.00,LWC V2.00 B727,2013-11-28 22:27:00,
2013-11-28 15:31:00,69.5,34.0,29.95,SW,216,0.0,1.0,27,0.00,,,0.00,LWC V2.00 B727,2013-11-28 22:31:00,
2013-11-28 15:36:00,69.8,33.4,29.95,SSW,198,0.0,1.0,26,0.00,,,0.00,LWC V2.00 B727,2013-11-28 22:36:00,
2013-11-28 15:41:00,69.7,34.2,29.95,SW,230,1.0,2.0,27,0.00,,,0.00,LWC V2.00 B727,2013-11-28 22:41:00,
2013-11-28 15:46:00,69.4,34.0,29.95,SW,219,0.0,5.0,27,0.00,,,0.00,LWC V2.00 B727,2013-11-28 22:46:00,
2013-11-28 15:51:00,69.3,32.9,29.95,SW,220,0.0,1.0,26,0.00,,,0.00,LWC V2.00 B727,2013-11-28 22:51:00,
2013-11-28 15:57:00,68.8,34.4,29.95,SW,226,0.0,1.0,28,0.00,,,0.00,LWC V2.00 B727,2013-11-28 22:57:00,
2013-11-28 16:02:00,68.6,34.2,29.95,SW,222,0.0,3.0,28,0.00,,,0.00,LWC V2.00 B727,2013-11-28 23:02:00,
2013-11-28 16:07:00,68.5,34.1,29.95,SW,220,0.0,1.0,28,0.00,,,0.00,LWC V2.00 B727,2013-11-28 23:07:00,
2013-11-28 16:12:00,68.4,34.0,29.95,SW,221,1.0,2.0,28,0.00,,,0.00,LWC V2.00 B727,2013-11-28 23:12:00,
2013-11-28 16:17:00,68.2,33.8,29.95,SW,216,1.0,1.0,28,0.00,,,0.00,LWC V2.00 B727,2013-11-28 23:17:00,
2013-11-28 16:22:00,67.9,33.6,29.95,SW,219,0.0,1.0,28,0.00,,,0.00,LWC V2.00 B727,2013-11-28 23:22:00,
2013-11-28 16:27:00,67.6,34.2,29.95,SW,214,0.0,1.0,29,0.00,,,0.00,LWC V2.00 B727,2013-11-28 23:27:00,
2013-11-28 16:32:00,67.2,33.9,29.95,SW,214,0.0,0.0,29,0.00,,,0.00,LWC V2.00 B727,2013-11-28 23:32:00,
2013-11-28 16:37:00,66.7,34.3,29.95,SW,214,0.0,1.0,30,0.00,,,0.00,LWC V2.00 B727,2013-11-28 23:37:00,
2013-11-28 16:42:00,66.3,33.9,29.95,SW,214,0.0,1.0,30,0.00,,,0.00,LWC V2.00 B727,2013-11-28 23:42:00,
2013-11-28 16:47:00,66.0,34.5,29.95,SW,215,0.0,0.0,31,0.00,,,0.00,LWC V2.00 B727,2013-11-28 23:47:00,
2013-11-28 16:52:00,65.8,35.1,29.95,SW,215,0.0,1.0,32,0.00,,,0.00,LWC V2.00 B727,2013-11-28 23:52:00,
2013-11-28 16:57:00,65.8,35.1,29.95,SW,215,0.0,0.0,32,0.00,,,0.00,LWC V2.00 B727,2013-11-28 23:57:00,
2013-11-28 17:02:00,65.6,34.9,29.95,SW,215,0.0,0.0,32,0.00,,,0.00,LWC V2.00 B727,2013-11-29 00:02:00,
2013-11-28 17:07:00,65.5,34.9,29.95,SW,215,0.0,0.0,32,0.00,,,0.00,LWC V2.00 B727,2013-11-29 00:07:00,
2013-11-28 17:12:00,65.3,34.7,29.95,SW,215,0.0,0.0,32,0.00,,,0.00,LWC V2.00 B727,2013-11-29 00:12:00,
2013-11-28 17:17:00,65.1,34.5,29.95,SW,215,0.0,0.0,32,0.00,,,0.00,LWC V2.00 B727,2013-11-29 00:17:00,
2013-11-28 17:22:00,64.8,34.2,29.95,SW,215,0.0,0.0,32,0.00,,,0.00,LWC V2.00 B727,2013-11-29 00:22:00,
2013-11-28 17:27:00,64.4,33.9,29.95,SW,215,0.0,0.0,32,0.00,,,0.00,LWC V2.00 B727,2013-11-29 00:27:00,
2013-11-28 17:32:00,64.1,34.4,29.95,SW,215,0.0,0.0,33,0.00,,,0.00,LWC V2.00 B727,2013-11-29 00:32:00,
2013-11-28 17:36:00,63.7,34.1,29.95,SW,215,0.0,0.0,33,0.00,,,0.00,LWC V2.00 B727,2013-11-29 00:36:00,
2013-11-28 17:41:00,63.2,34.4,29.95,SW,215,0.0,0.0,34,0.00,,,0.00,LWC V2.00 B727,2013-11-29 00:41:00,
2013-11-28 17:46:00,62.9,34.1,29.95,SW,215,0.0,0.0,34,0.00,,,0.00,LWC V2.00 B727,2013-11-29 00:46:00,
2013-11-28 17:51:00,62.5,34.5,29.96,SW,215,0.0,0.0,35,0.00,,,0.00,LWC V2.00 B727,2013-11-29 00:51:00,
2013-11-28 17:56:00,62.1,34.1,29.96,SW,215,0.0,0.0,35,0.00,,,0.00,LWC V2.00 B727,2013-11-29 00:56:00,
2013-11-28 18:01:00,61.8,34.6,29.96,SW,215,0.0,0.0,36,0.00,,,0.00,LWC V2.00 B727,2013-11-29 01:01:00,
2013-11-28 18:06:00,61.4,34.9,29.96,SW,215,0.0,0.0,37,0.00,,,0.00,LWC V2.00 B727,2013-11-29 01:06:00,
2013-11-28 18:11:00,61.1,35.3,29.96,SW,215,0.0,0.0,38,0.00,,,0.00,LWC V2.00 B727,2013-11-29 01:11:00,
2013-11-28 18:16:00,60.8,35.0,29.97,SW,215,0.0,0.0,38,0.00,,,0.00,LWC V2.00 B727,2013-11-29 01:16:00,
2013-11-28 18:21:00,60.7,34.9,29.97,SW,215,0.0,0.0,38,0.00,,,0.00,LWC V2.00 B727,2013-11-29 01:21:00,
2013-11-28 18:26:00,60.3,35.2,29.97,SW,215,0.0,0.0,39,0.00,,,0.00,LWC V2.00 B727,2013-11-29 01:26:00,
2013-11-28 18:31:00,59.9,35.5,29.97,SW,215,0.0,0.0,40,0.00,,,0.00,LWC V2.00 B727,2013-11-29 01:31:00,
2013-11-28 18:36:00,59.5,35.8,29.97,WSW,242,0.0,0.0,41,0.00,,,0.00,LWC V2.00 B727,2013-11-29 01:36:00,
2013-11-28 18:41:00,59.1,35.4,29.97,WSW,242,0.0,0.0,41,0.00,,,0.00,LWC V2.00 B727,2013-11-29 01:41:00,
2013-11-28 18:46:00,59.1,34.8,29.97,WSW,243,0.0,0.0,40,0.00,,,0.00,LWC V2.00 B727,2013-11-29 01:46:00,
2013-11-28 18:51:00,59.1,34.8,29.97,WSW,243,0.0,0.0,40,0.00,,,0.00,LWC V2.00 B727,2013-11-29 01:51:00,
2013-11-28 18:56:00,59.2,34.9,29.97,WSW,243,0.0,0.0,40,0.00,,,0.00,LWC V2.00 B727,2013-11-29 01:56:00,
2013-11-28 19:01:00,59.1,34.8,29.98,WSW,243,0.0,0.0,40,0.00,,,0.00,LWC V2.00 B727,2013-11-29 02:01:00,
2013-11-28 19:06:00,59.0,35.3,29.98,WSW,243,0.0,0.0,41,0.00,,,0.00,LWC V2.00 B727,2013-11-29 02:06:00,
2013-11-28 19:11:00,58.9,35.2,29.98,WSW,243,0.0,0.0,41,0.00,,,0.00,LWC V2.00 B727,2013-11-29 02:11:00,
2013-11-28 19:16:00,58.7,35.1,29.98,WSW,243,0.0,0.0,41,0.00,,,0.00,LWC V2.00 B727,2013-11-29 02:16:00,
2013-11-28 19:21:00,58.5,34.9,29.98,WSW,243,0.0,0.0,41,0.00,,,0.00,LWC V2.00 B727,2013-11-29 02:21:00,
2013-11-28 19:26:00,58.5,34.9,29.98,WSW,243,0.0,0.0,41,0.00,,,0.00,LWC V2.00 B727,2013-11-29 02:26:00,
2013-11-28 19:31:00,58.5,34.9,29.98,WSW,243,0.0,0.0,41,0.00,,,0.00,LWC V2.00 B727,2013-11-29 02:31:00,
2013-11-28 19:36:00,58.3,34.7,29.99,WSW,243,0.0,0.0,41,0.00,,,0.00,LWC V2.00 B727,2013-11-29 02:36:00,
2013-11-28 19:41:00,58.3,34.7,29.99,WSW,243,0.0,0.0,41,0.00,,,0.00,LWC V2.00 B727,2013-11-29 02:41:00,
2013-11-28 19:46:00,58.2,34.6,29.99,WSW,242,0.0,0.0,41,0.00,,,0.00,LWC V2.00 B727,2013-11-29 02:46:00,
2013-11-28 19:51:00,58.1,35.1,29.99,WSW,243,0.0,0.0,42,0.00,,,0.00,LWC V2.00 B727,2013-11-29 02:51:00,
2013-11-28 19:56:00,57.9,34.9,29.99,WSW,243,0.0,0.0,42,0.00,,,0.00,LWC V2.00 B727,2013-11-29 02:56:00,
2013-11-28 20:01:00,57.8,35.5,30.00,WSW,242,0.0,0.0,43,0.00,,,0.00,LWC V2.00 B727,2013-11-29 03:01:00,
2013-11-28 20:06:00,57.7,35.4,30.00,WSW,243,0.0,0.0,43,0.00,,,0.00,LWC V2.00 B727,2013-11-29 03:06:00,
2013-11-28 20:11:00,57.5,35.2,30.00,WSW,243,0.0,0.0,43,0.00,,,0.00,LWC V2.00 B727,2013-11-29 03:11:00,
2013-11-28 20:16:00,57.4,35.7,30.01,WSW,242,0.0,0.0,44,0.00,,,0.00,LWC V2.00 B727,2013-11-29 03:16:00,
2013-11-28 20:21:00,57.1,35.4,30.01,WSW,243,0.0,0.0,44,0.00,,,0.00,LWC V2.00 B727,2013-11-29 03:21:00,
2013-11-28 20:26:00,56.8,35.1,30.01,WSW,243,0.0,0.0,44,0.00,,,0.00,LWC V2.00 B727,2013-11-29 03:26:00,
2013-11-28 20:31:00,56.6,35.5,30.01,WSW,242,0.0,0.0,45,0.00,,,0.00,LWC V2.00 B727,2013-11-29 03:31:00,
2013-11-28 20:36:00,56.4,35.9,30.02,WSW,243,0.0,0.0,46,0.00,,,0.00,LWC V2.00 B727,2013-11-29 03:36:00,
2013-11-28 20:41:00,56.2,35.7,30.02,WSW,242,0.0,0.0,46,0.00,,,0.00,LWC V2.00 B727,2013-11-29 03:41:00,
2013-11-28 20:47:00,55.9,36.0,30.02,WSW,241,0.0,0.0,47,0.00,,,0.00,LWC V2.00 B727,2013-11-29 03:47:00,
2013-11-28 20:52:00,55.5,36.1,30.02,WSW,237,0.0,0.0,48,0.00,,,0.00,LWC V2.00 B727,2013-11-29 03:52:00,
2013-11-28 20:57:00,55.1,36.3,30.02,WSW,237,0.0,0.0,49,0.00,,,0.00,LWC V2.00 B727,2013-11-29 03:57:00,
2013-11-28 21:01:00,54.6,36.3,30.02,WSW,237,0.0,0.0,50,0.00,,,0.00,LWC V2.00 B727,2013-11-29 04:01:00,
2013-11-28 21:07:00,54.1,36.4,30.02,WSW,239,0.0,0.0,51,0.00,,,0.00,LWC V2.00 B727,2013-11-29 04:07:00,
2013-11-28 21:11:00,53.7,36.0,30.02,WSW,239,0.0,0.0,51,0.00,,,0.00,LWC V2.00 B727,2013-11-29 04:11:00,
2013-11-28 21:16:00,53.6,35.9,30.01,WSW,242,0.0,0.0,51,0.00,,,0.00,LWC V2.00 B727,2013-11-29 04:16:00,
2013-11-28 21:21:00,53.6,35.9,30.02,WSW,242,0.0,0.0,51,0.00,,,0.00,LWC V2.00 B727,2013-11-29 04:21:00,
2013-11-28 21:26:00,53.9,35.7,30.02,WSW,243,0.0,0.0,50,0.00,,,0.00,LWC V2.00 B727,2013-11-29 04:26:00,
2013-11-28 21:31:00,54.2,35.5,30.02,WSW,243,0.0,0.0,49,0.00,,,0.00,LWC V2.00 B727,2013-11-29 04:31:00,
2013-11-28 21:36:00,54.6,35.3,30.02,WSW,245,0.0,0.0,48,0.00,,,0.00,LWC V2.00 B727,2013-11-29 04:36:00,
2013-11-28 21:41:00,54.9,35.1,30.02,WSW,245,0.0,0.0,47,0.00,,,0.00,LWC V2.00 B727,2013-11-29 04:41:00,
2013-11-28 21:46:00,55.0,35.1,30.02,WSW,245,0.0,0.0,47,0.00,,,0.00,LWC V2.00 B727,2013-11-29 04:46:00,
2013-11-28 21:51:00,55.1,35.2,30.02,WSW,245,0.0,0.0,47,0.00,,,0.00,LWC V2.00 B727,2013-11-29 04:51:00,
2013-11-28 21:56:00,55.2,34.8,30.03,WSW,245,0.0,0.0,46,0.00,,,0.00,LWC V2.00 B727,2013-11-29 04:56:00,
2013-11-28 22:01:00,55.4,35.0,30.03,WSW,245,0.0,0.0,46,0.00,,,0.00,LWC V2.00 B727,2013-11-29 05:01:00,
2013-11-28 22:02:00,55.5,35.1,30.03,WSW,245,0.0,0.0,46,0.00,,,0.00,LWC V2.00 B727,2013-11-29 05:02:00,
2013-11-28 22:07:00,55.6,34.6,30.03,WSW,245,0.0,0.0,45,0.00,,,0.00,LWC V2.00 B727,2013-11-29 05:07:00,
2013-11-28 22:12:00,55.7,34.7,30.02,WSW,245,0.0,0.0,45,0.00,,,0.00,LWC V2.00 B727,2013-11-29 05:12:00,
2013-11-28 22:17:00,55.6,35.2,30.02,WSW,245,0.0,0.0,46,0.00,,,0.00,LWC V2.00 B727,2013-11-29 05:17:00,
2013-11-28 22:22:00,55.5,35.1,30.02,WSW,245,0.0,0.0,46,0.00,,,0.00,LWC V2.00 B727,2013-11-29 05:22:00,
2013-11-28 22:27:00,55.5,35.1,30.02,WSW,245,0.0,0.0,46,0.00,,,0.00,LWC V2.00 B727,2013-11-29 05:27:00,
2013-11-28 22:32:00,55.5,35.1,30.02,WSW,245,0.0,0.0,46,0.00,,,0.00,LWC V2.00 B727,2013-11-29 05:32:00,
2013-11-28 22:37:00,55.6,34.6,30.02,WSW,245,0.0,0.0,45,0.00,,,0.00,LWC V2.00 B727,2013-11-29 05:37:00,
2013-11-28 22:42:00,55.9,34.9,30.02,WSW,245,0.0,0.0,45,0.00,,,0.00,LWC V2.00 B727,2013-11-29 05:42:00,
2013-11-28 22:47:00,56.0,35.0,30.02,WSW,245,0.0,0.0,45,0.00,,,0.00,LWC V2.00 B727,2013-11-29 05:47:00,
2013-11-28 22:52:00,55.9,34.9,30.02,WSW,245,0.0,0.0,45,0.00,,,0.00,LWC V2.00 B727,2013-11-29 05:52:00,
2013-11-28 22:57:00,55.7,35.2,30.02,WSW,245,0.0,0.0,46,0.00,,,0.00,LWC V2.00 B727,2013-11-29 05:57:00,
2013-11-28 23:02:00,55.6,35.2,30.02,WSW,245,0.0,0.0,46,0.00,,,0.00,LWC V2.00 B727,2013-11-29 06:02:00,
2013-11-28 23:07:00,55.3,35.4,30.02,WSW,245,0.0,0.0,47,0.00,,,0.00,LWC V2.00 B727,2013-11-29 06:07:00,
2013-11-28 23:12:00,55.1,34.7,30.02,WSW,245,0.0,0.0,46,0.00,,,0.00,LWC V2.00 B727,2013-11-29 06:12:00,
2013-11-28 23:17:00,54.9,35.1,30.02,WSW,245,0.0,0.0,47,0.00,,,0.00,LWC V2.00 B727,2013-11-29 06:17:00,
2013-11-28 23:22:00,54.8,35.0,30.03,WSW,245,0.0,0.0,47,0.00,,,0.00,LWC V2.00 B727,2013-11-29 06:22:00,
2013-11-28 23:27:00,54.8,34.4,30.03,WSW,245,0.0,0.0,46,0.00,,,0.00,LWC V2.00 B727,2013-11-29 06:27:00,
2013-11-28 23:32:00,55.3,34.9,30.03,WSW,245,0.0,0.0,46,0.00,,,0.00,LWC V2.00 B727,2013-11-29 06:32:00,
2013-11-28 23:37:00,55.5,34.5,30.03,WSW,245,0.0,0.0,45,0.00,,,0.00,LWC V2.00 B727,2013-11-29 06:37:00,
2013-11-28 23:42:00,55.5,35.1,30.03,WSW,245,0.0,0.0,46,0.00,,,0.00,LWC V2.00 B727,2013-11-29 06:42:00,
2013-11-28 23:47:00,55.4,35.0,30.03,WSW,245,0.0,0.0,46,0.00,,,0.00,LWC V2.00 B727,2013-11-29 06:47:00,
2013-11-28 23:52:00,55.3,34.9,30.03,WSW,245,0.0,0.0,46,0.00,,,0.00,LWC V2.00 B727,2013-11-29 06:52:00,
2013-11-28 23:57:00,55.3,34.9,30.03,WSW,245,0.0,0.0,46,0.00,,,0.00,LWC V2.00 B727,2013-11-29 06:57:00,